Time,TemperatureF,DewpointF,PressureIn,WindDirection,WindDirectionDegrees,WindSpeedMPH,WindSpeedGustMPH,Humidity,HourlyPrecipIn,Conditions,Clouds,dailyrainin,SoftwareType,DateUTC
2013-06-09 00:02:00,76.8,70.9,29.82,SSE,149,5.8,0.0,82,0.00,CLR,,0.00,WeatherDisplay:10.37,2013-06-09 05:02:00,
2013-06-09 00:03:00,76.8,70.9,29.82,SSE,149,0.0,0.0,82,0.00,CLR,,0.00,WeatherDisplay:10.37,2013-06-09 05:03:00,
2013-06-09 00:08:00,76.7,70.8,29.82,SSE,149,3.5,3.5,82,0.00,CLR,,0.00,WeatherDisplay:10.37,2013-06-09 05:08:00,
2013-06-09 00:13:00,76.6,71.0,29.82,SSE,149,4.6,4.6,83,0.00,CLR,,0.00,WeatherDisplay:10.37,2013-06-09 05:13:00,
2013-06-09 00:18:00,76.5,70.9,29.81,SSE,149,0.0,0.0,83,0.00,CLR,,0.00,WeatherDisplay:10.37,2013-06-09 05:18:00,
2013-06-09 00:23:00,76.5,70.9,29.82,SSE,149,5.8,5.8,83,0.00,CLR,,0.00,WeatherDisplay:10.37,2013-06-09 05:23:00,
2013-06-09 00:28:00,76.4,70.9,29.81,SSE,149,5.0,5.0,83,0.00,CLR,,0.00,WeatherDisplay:10.37,2013-06-09 05:28:00,
2013-06-09 00:33:00,76.4,71.2,29.81,SSE,148,4.6,4.6,84,0.00,CLR,,0.00,WeatherDisplay:10.37,2013-06-09 05:33:00,
2013-06-09 00:38:00,76.3,71.1,29.81,SSE,148,5.8,5.8,84,0.00,CLR,,0.00,WeatherDisplay:10.37,2013-06-09 05:38:00,
2013-06-09 00:43:00,76.3,71.1,29.80,SSE,155,9.2,9.2,84,0.00,CLR,,0.00,WeatherDisplay:10.37,2013-06-09 05:43:00,
2013-06-09 00:48:00,76.2,71.4,29.80,South,173,4.0,4.0,85,0.00,CLR,,0.00,WeatherDisplay:10.37,2013-06-09 05:48:00,
2013-06-09 00:53:00,76.2,71.4,29.80,SSE,165,10.4,10.4,85,0.00,CLR,,0.00,WeatherDisplay:10.37,2013-06-09 05:53:00,
2013-06-09 00:58:00,76.2,71.4,29.80,SSE,164,3.5,3.5,85,0.00,CLR,,0.00,WeatherDisplay:10.37,2013-06-09 05:58:00,
2013-06-09 01:03:00,76.2,71.4,29.80,SSE,161,4.6,4.6,85,0.00,CLR,,0.00,WeatherDisplay:10.37,2013-06-09 06:03:00,
2013-06-09 01:08:00,76.1,71.6,29.79,SSE,161,3.5,3.5,86,0.00,CLR,,0.00,WeatherDisplay:10.37,2013-06-09 06:08:00,
2013-06-09 01:13:00,76.0,71.5,29.80,SSE,156,7.0,7.0,86,0.00,CLR,,0.00,WeatherDisplay:10.37,2013-06-09 06:13:00,
2013-06-09 01:18:00,75.9,71.4,29.80,SSE,156,4.0,4.0,86,0.00,CLR,,0.00,WeatherDisplay:10.37,2013-06-09 06:18:00,
2013-06-09 01:23:00,75.9,71.4,29.80,SSE,156,0.0,0.0,86,0.00,CLR,,0.00,WeatherDisplay:10.37,2013-06-09 06:23:00,
2013-06-09 01:28:00,75.8,71.3,29.80,SSE,156,0.0,0.0,86,0.00,CLR,,0.00,WeatherDisplay:10.37,2013-06-09 06:28:00,
2013-06-09 01:33:00,75.7,71.2,29.80,SSE,156,3.5,3.5,86,0.00,CLR,,0.00,WeatherDisplay:10.37,2013-06-09 06:33:00,
2013-06-09 01:38:00,75.6,71.1,29.80,SSE,156,3.5,0.0,86,0.00,CLR,,0.00,WeatherDisplay:10.37,2013-06-09 06:38:00,
2013-06-09 01:43:00,75.6,71.5,29.80,SSE,156,0.0,0.0,87,0.00,CLR,,0.00,WeatherDisplay:10.37,2013-06-09 06:43:00,
2013-06-09 01:48:00,75.5,71.4,29.80,SSE,156,0.0,0.1,87,0.00,CLR,,0.00,WeatherDisplay:10.37,2013-06-09 06:48:00,
2013-06-09 01:53:00,75.4,71.3,29.80,SSE,156,0.0,0.0,87,0.00,CLR,,0.00,WeatherDisplay:10.37,2013-06-09 06:53:00,
2013-06-09 01:58:00,75.3,71.2,29.81,SSE,156,2.3,0.0,87,0.00,CLR,,0.00,WeatherDisplay:10.37,2013-06-09 06:58:00,
2013-06-09 02:03:00,75.2,71.1,29.81,SSE,156,0.0,0.0,87,0.00,CLR,,0.00,WeatherDisplay:10.37,2013-06-09 07:03:00,
2013-06-09 02:08:00,75.2,71.1,29.81,SSE,156,0.0,0.0,87,0.00,CLR,,0.00,WeatherDisplay:10.37,2013-06-09 07:08:00,
2013-06-09 02:13:00,75.0,70.9,29.81,SSE,156,0.0,0.0,87,0.00,CLR,,0.00,WeatherDisplay:10.37,2013-06-09 07:13:00,
2013-06-09 02:18:00,74.9,71.1,29.81,SSE,156,0.0,0.0,88,0.00,CLR,,0.00,WeatherDisplay:10.37,2013-06-09 07:18:00,
2013-06-09 02:23:00,74.8,71.0,29.81,SSE,156,1.2,0.0,88,0.00,CLR,,0.00,WeatherDisplay:10.37,2013-06-09 07:23:00,
2013-06-09 02:28:00,74.6,70.8,29.80,SSE,156,3.5,3.5,88,0.00,CLR,,0.00,WeatherDisplay:10.37,2013-06-09 07:28:00,
2013-06-09 02:33:00,74.5,71.0,29.80,SSE,151,7.0,7.0,89,0.00,CLR,,0.00,WeatherDisplay:10.37,2013-06-09 07:33:00,
2013-06-09 02:38:00,74.4,70.9,29.80,SSE,150,4.6,4.6,89,0.00,CLR,,0.00,WeatherDisplay:10.37,2013-06-09 07:38:00,
2013-06-09 02:43:00,74.4,70.9,29.80,SSE,150,6.9,6.9,89,0.00,CLR,,0.00,WeatherDisplay:10.37,2013-06-09 07:43:00,
2013-06-09 02:48:00,74.3,70.8,29.80,SSE,150,5.8,5.8,89,0.00,CLR,,0.00,WeatherDisplay:10.37,2013-06-09 07:48:00,
2013-06-09 02:53:00,74.3,70.8,29.79,SSE,150,0.0,0.0,89,0.00,CLR,,0.00,WeatherDisplay:10.37,2013-06-09 07:53:00,
2013-06-09 02:58:00,74.2,70.7,29.80,SSE,150,3.5,3.5,89,0.00,CLR,,0.00,WeatherDisplay:10.37,2013-06-09 07:58:00,
2013-06-09 03:03:00,74.2,71.1,29.80,SSE,149,9.2,9.2,90,0.00,CLR,,0.00,WeatherDisplay:10.37,2013-06-09 08:03:00,
2013-06-09 03:08:00,74.3,71.2,29.80,SE,146,10.4,10.4,90,0.00,CLR,,0.00,WeatherDisplay:10.37,2013-06-09 08:08:00,
2013-06-09 03:13:00,74.3,71.2,29.80,SSE,148,0.0,0.0,90,0.00,CLR,,0.00,WeatherDisplay:10.37,2013-06-09 08:13:00,
2013-06-09 03:18:00,74.3,71.2,29.80,SSE,148,4.6,4.6,90,0.00,CLR,,0.00,WeatherDisplay:10.37,2013-06-09 08:18:00,
2013-06-09 03:23:00,74.3,71.2,29.80,SSE,148,6.9,6.9,90,0.00,CLR,,0.00,WeatherDisplay:10.37,2013-06-09 08:23:00,
2013-06-09 03:28:00,74.3,71.2,29.81,SSE,148,3.5,3.5,90,0.00,CLR,,0.00,WeatherDisplay:10.37,2013-06-09 08:28:00,
2013-06-09 03:33:00,74.3,71.2,29.81,SSE,148,0.0,0.0,90,0.00,CLR,,0.00,WeatherDisplay:10.37,2013-06-09 08:33:00,
2013-06-09 03:38:00,74.3,71.2,29.81,SSE,150,10.4,10.4,90,0.00,CLR,,0.00,WeatherDisplay:10.37,2013-06-09 08:38:00,
2013-06-09 03:43:00,74.3,71.2,29.80,SSE,149,0.0,0.0,90,0.00,CLR,,0.00,WeatherDisplay:10.37,2013-06-09 08:43:00,
2013-06-09 03:48:00,74.2,71.1,29.80,SSE,149,0.0,0.0,90,0.00,CLR,,0.00,WeatherDisplay:10.37,2013-06-09 08:48:00,
2013-06-09 03:53:00,74.2,71.4,29.80,SSE,150,2.3,0.0,91,0.00,CLR,,0.00,WeatherDisplay:10.37,2013-06-09 08:53:00,
2013-06-09 03:58:00,74.1,71.3,29.80,SSE,150,3.5,3.5,91,0.00,CLR,,0.00,WeatherDisplay:10.37,2013-06-09 08:58:00,
2013-06-09 04:03:00,74.1,71.3,29.80,SSE,150,3.5,0.0,91,0.00,CLR,,0.00,WeatherDisplay:10.37,2013-06-09 09:03:00,
2013-06-09 04:08:00,74.0,71.2,29.80,SSE,149,5.8,5.8,91,0.00,CLR,,0.00,WeatherDisplay:10.37,2013-06-09 09:08:00,
2013-06-09 04:13:00,74.0,71.2,29.81,SSE,151,6.0,6.0,91,0.00,CLR,,0.00,WeatherDisplay:10.37,2013-06-09 09:13:00,
2013-06-09 04:18:00,74.0,71.2,29.81,SSE,152,3.5,3.5,91,0.00,CLR,,0.00,WeatherDisplay:10.37,2013-06-09 09:18:00,
2013-06-09 04:23:00,73.9,71.1,29.81,SSE,152,0.0,0.0,91,0.00,CLR,,0.00,WeatherDisplay:10.37,2013-06-09 09:23:00,
2013-06-09 04:28:00,73.9,71.1,29.81,SSE,153,6.9,6.9,91,0.00,CLR,,0.00,WeatherDisplay:10.37,2013-06-09 09:28:00,
2013-06-09 04:33:00,73.9,71.1,29.81,SSE,154,0.0,0.0,91,0.00,CLR,,0.00,WeatherDisplay:10.37,2013-06-09 09:33:00,
2013-06-09 04:38:00,74.0,71.2,29.81,SSE,153,0.0,0.0,91,0.00,CLR,,0.00,WeatherDisplay:10.37,2013-06-09 09:38:00,
2013-06-09 04:43:00,74.0,71.2,29.82,SSE,153,7.0,0.0,91,0.00,CLR,,0.00,WeatherDisplay:10.37,2013-06-09 09:43:00,
2013-06-09 04:48:00,74.1,71.3,29.82,SSE,155,5.0,5.0,91,0.00,CLR,,0.00,WeatherDisplay:10.37,2013-06-09 09:48:00,
2013-06-09 04:53:00,74.1,71.3,29.82,SSE,154,5.8,5.8,91,0.00,CLR,,0.00,WeatherDisplay:10.37,2013-06-09 09:53:00,
2013-06-09 04:58:00,74.1,71.3,29.82,SSE,154,4.6,4.6,91,0.00,CLR,,0.00,WeatherDisplay:10.37,2013-06-09 09:58:00,
2013-06-09 05:03:00,74.1,71.3,29.82,SSE,155,3.5,3.5,91,0.00,CLR,,0.00,WeatherDisplay:10.37,2013-06-09 10:03:00,
2013-06-09 05:08:00,74.2,71.4,29.82,SSE,156,6.0,6.0,91,0.00,CLR,,0.00,WeatherDisplay:10.37,2013-06-09 10:08:00,
2013-06-09 05:13:00,74.2,71.4,29.82,SSE,157,4.0,0.0,91,0.00,CLR,,0.00,WeatherDisplay:10.37,2013-06-09 10:13:00,
2013-06-09 05:18:00,74.2,71.4,29.82,SSE,159,6.9,6.9,91,0.00,CLR,,0.00,WeatherDisplay:10.37,2013-06-09 10:18:00,
2013-06-09 05:23:00,74.2,71.1,29.81,SSE,167,6.9,6.9,90,0.00,CLR,,0.00,WeatherDisplay:10.37,2013-06-09 10:23:00,
2013-06-09 05:28:00,74.2,71.1,29.81,SSE,163,11.5,11.5,90,0.00,CLR,,0.00,WeatherDisplay:10.37,2013-06-09 10:28:00,
2013-06-09 05:33:00,74.2,71.4,29.81,SSE,167,6.9,6.9,91,0.00,CLR,,0.00,WeatherDisplay:10.37,2013-06-09 10:33:00,
2013-06-09 05:38:00,74.2,71.4,29.81,SSE,167,11.5,11.5,91,0.00,CLR,,0.00,WeatherDisplay:10.37,2013-06-09 10:38:00,
2013-06-09 05:43:00,74.2,71.4,29.81,SSE,167,9.2,9.2,91,0.00,CLR,,0.00,WeatherDisplay:10.37,2013-06-09 10:43:00,
2013-06-09 05:48:00,74.2,71.4,29.81,South,171,6.9,6.9,91,0.00,CLR,,0.00,WeatherDisplay:10.37,2013-06-09 10:48:00,
2013-06-09 05:53:00,74.2,71.4,29.81,SSE,163,11.5,11.5,91,0.00,CLR,,0.00,WeatherDisplay:10.37,2013-06-09 10:53:00,
2013-06-09 05:58:00,74.3,71.5,29.82,SSE,168,0.0,0.0,91,0.00,CLR,,0.00,WeatherDisplay:10.37,2013-06-09 10:58:00,
2013-06-09 06:03:00,74.3,71.5,29.82,SSE,168,5.0,5.0,91,0.00,CLR,,0.00,WeatherDisplay:10.37,2013-06-09 11:03:00,
2013-06-09 06:08:00,74.3,71.5,29.82,SSE,168,2.3,0.0,91,0.00,CLR,,0.00,WeatherDisplay:10.37,2013-06-09 11:08:00,
2013-06-09 06:13:00,74.3,71.5,29.82,South,169,4.6,4.6,91,0.00,CLR,,0.00,WeatherDisplay:10.37,2013-06-09 11:13:00,
2013-06-09 06:18:00,74.3,71.5,29.82,South,169,0.0,0.0,91,0.00,CLR,,0.00,WeatherDisplay:10.37,2013-06-09 11:18:00,
2013-06-09 06:23:00,74.3,71.5,29.82,South,169,4.6,4.6,91,0.00,CLR,,0.00,WeatherDisplay:10.37,2013-06-09 11:23:00,
2013-06-09 06:28:00,74.3,71.5,29.82,South,169,0.0,0.0,91,0.00,CLR,,0.00,WeatherDisplay:10.37,2013-06-09 11:28:00,
2013-06-09 06:33:00,74.3,71.5,29.83,South,169,0.0,0.0,91,0.00,CLR,,0.00,WeatherDisplay:10.37,2013-06-09 11:33:00,
2013-06-09 06:38:00,74.3,71.5,29.83,South,169,2.3,2.3,91,0.00,CLR,,0.00,WeatherDisplay:10.37,2013-06-09 11:38:00,
2013-06-09 06:43:00,74.3,71.5,29.83,South,169,0.0,0.0,91,0.00,CLR,,0.00,WeatherDisplay:10.37,2013-06-09 11:43:00,
2013-06-09 06:48:00,74.4,71.6,29.84,South,169,0.0,0.0,91,0.00,CLR,,0.00,WeatherDisplay:10.37,2013-06-09 11:48:00,
2013-06-09 06:53:00,74.4,71.6,29.83,South,169,0.0,0.0,91,0.00,CLR,,0.00,WeatherDisplay:10.37,2013-06-09 11:53:00,
2013-06-09 06:58:00,74.4,71.6,29.83,South,169,0.0,0.0,91,0.00,CLR,,0.00,WeatherDisplay:10.37,2013-06-09 11:58:00,
2013-06-09 07:03:00,74.5,71.7,29.84,South,169,0.0,0.0,91,0.00,CLR,,0.00,WeatherDisplay:10.37,2013-06-09 12:03:00,
2013-06-09 07:08:00,74.5,71.7,29.84,South,169,0.0,0.0,91,0.00,CLR,,0.00,WeatherDisplay:10.37,2013-06-09 12:08:00,
2013-06-09 07:13:00,74.5,71.7,29.85,South,169,0.0,0.0,91,0.00,CLR,,0.00,WeatherDisplay:10.37,2013-06-09 12:13:00,
2013-06-09 07:18:00,74.5,71.7,29.85,South,169,0.0,0.0,91,0.00,CLR,,0.00,WeatherDisplay:10.37,2013-06-09 12:18:00,
2013-06-09 07:23:00,74.6,71.8,29.84,South,169,0.0,0.0,91,0.00,CLR,,0.00,WeatherDisplay:10.37,2013-06-09 12:23:00,
2013-06-09 07:28:00,74.6,72.1,29.84,South,169,0.0,0.0,92,0.00,CLR,,0.00,WeatherDisplay:10.37,2013-06-09 12:28:00,
2013-06-09 07:33:00,74.6,71.8,29.84,South,169,0.0,0.0,91,0.00,CLR,,0.00,WeatherDisplay:10.37,2013-06-09 12:33:00,
2013-06-09 07:38:00,74.7,71.9,29.84,South,169,0.0,0.0,91,0.00,CLR,,0.00,WeatherDisplay:10.37,2013-06-09 12:38:00,
2013-06-09 07:43:00,74.7,71.9,29.85,South,169,0.0,0.0,91,0.00,CLR,,0.00,WeatherDisplay:10.37,2013-06-09 12:43:00,
2013-06-09 07:48:00,74.8,72.0,29.86,South,169,0.0,0.0,91,0.00,CLR,,0.00,WeatherDisplay:10.37,2013-06-09 12:48:00,
2013-06-09 07:53:00,74.8,72.0,29.86,South,169,0.0,0.0,91,0.00,CLR,,0.00,WeatherDisplay:10.37,2013-06-09 12:53:00,
2013-06-09 07:58:00,74.9,72.1,29.86,South,169,0.0,0.0,91,0.00,CLR,,0.00,WeatherDisplay:10.37,2013-06-09 12:58:00,
2013-06-09 08:03:00,75.0,72.2,29.86,South,169,0.0,0.0,91,0.00,CLR,,0.00,WeatherDisplay:10.37,2013-06-09 13:03:00,
2013-06-09 08:08:00,75.1,72.3,29.87,South,169,0.0,0.0,91,0.00,CLR,,0.00,WeatherDisplay:10.37,2013-06-09 13:08:00,
2013-06-09 08:13:00,75.1,72.3,29.88,South,169,0.0,0.0,91,0.00,CLR,,0.00,WeatherDisplay:10.37,2013-06-09 13:13:00,
2013-06-09 08:18:00,75.2,72.4,29.88,South,169,0.0,0.0,91,0.00,CLR,,0.00,WeatherDisplay:10.37,2013-06-09 13:18:00,
2013-06-09 08:23:00,75.3,72.5,29.88,South,169,0.0,0.0,91,0.00,CLR,,0.00,WeatherDisplay:10.37,2013-06-09 13:23:00,
2013-06-09 08:28:00,75.4,72.6,29.88,South,169,0.0,0.0,91,0.00,CLR,,0.00,WeatherDisplay:10.37,2013-06-09 13:28:00,
2013-06-09 08:33:00,75.5,72.7,29.88,South,169,0.0,0.0,91,0.00,CLR,,0.00,WeatherDisplay:10.37,2013-06-09 13:33:00,
2013-06-09 08:38:00,75.7,72.9,29.88,South,169,0.0,0.0,91,0.00,CLR,,0.00,WeatherDisplay:10.37,2013-06-09 13:38:00,
2013-06-09 08:43:00,75.9,72.8,29.88,South,169,0.0,0.0,90,0.00,CLR,,0.00,WeatherDisplay:10.37,2013-06-09 13:43:00,
2013-06-09 08:48:00,76.1,73.0,29.89,South,169,0.0,0.0,90,0.00,CLR,,0.00,WeatherDisplay:10.37,2013-06-09 13:48:00,
2013-06-09 08:53:00,76.2,73.1,29.89,South,169,0.0,0.0,90,0.00,CLR,,0.00,WeatherDisplay:10.37,2013-06-09 13:53:00,
2013-06-09 08:58:00,76.4,73.2,29.89,South,169,2.3,2.3,90,0.00,CLR,,0.00,WeatherDisplay:10.37,2013-06-09 13:58:00,
2013-06-09 09:03:00,76.5,73.0,29.89,South,177,0.0,0.0,89,0.00,CLR,,0.00,WeatherDisplay:10.37,2013-06-09 14:03:00,
2013-06-09 09:08:00,76.6,73.1,29.89,South,177,0.0,0.0,89,0.00,CLR,,0.00,WeatherDisplay:10.37,2013-06-09 14:08:00,
2013-06-09 09:13:00,76.6,73.1,29.89,South,176,0.0,0.0,89,0.00,CLR,,0.00,WeatherDisplay:10.37,2013-06-09 14:13:00,
2013-06-09 09:18:00,76.5,73.0,29.89,South,177,0.0,0.0,89,0.00,CLR,,0.00,WeatherDisplay:10.37,2013-06-09 14:18:00,
2013-06-09 09:23:00,76.4,72.9,29.88,South,177,0.0,0.0,89,0.00,CLR,,0.00,WeatherDisplay:10.37,2013-06-09 14:23:00,
2013-06-09 09:28:00,76.4,72.9,29.88,South,177,0.0,0.0,89,0.00,CLR,,0.00,WeatherDisplay:10.37,2013-06-09 14:28:00,
2013-06-09 09:33:00,76.4,72.9,29.88,South,177,0.0,0.0,89,0.00,CLR,,0.00,WeatherDisplay:10.37,2013-06-09 14:33:00,
2013-06-09 09:38:00,76.3,72.8,29.88,South,176,0.0,0.0,89,0.00,CLR,,0.00,WeatherDisplay:10.37,2013-06-09 14:38:00,
2013-06-09 09:43:00,76.2,72.7,29.88,South,176,0.0,0.0,89,0.00,CLR,,0.00,WeatherDisplay:10.37,2013-06-09 14:43:00,
2013-06-09 09:48:00,76.1,73.0,29.88,South,180,4.6,4.6,90,0.00,CLR,,0.00,WeatherDisplay:10.37,2013-06-09 14:48:00,
2013-06-09 09:53:00,76.1,73.0,29.88,WSW,256,5.8,5.8,90,0.00,CLR,,0.00,WeatherDisplay:10.37,2013-06-09 14:53:00,
2013-06-09 09:58:00,76.0,72.9,29.88,West,261,3.5,3.5,90,0.00,CLR,,0.00,WeatherDisplay:10.37,2013-06-09 14:58:00,
2013-06-09 10:03:00,76.1,73.0,29.88,West,261,0.0,0.0,90,0.00,CLR,,0.00,WeatherDisplay:10.37,2013-06-09 15:03:00,
2013-06-09 10:08:00,76.1,73.0,29.88,West,261,0.0,0.0,90,0.00,CLR,,0.00,WeatherDisplay:10.37,2013-06-09 15:08:00,
2013-06-09 10:13:00,76.1,72.6,29.88,West,261,0.0,0.0,89,0.00,CLR,,0.00,WeatherDisplay:10.37,2013-06-09 15:13:00,
2013-06-09 10:18:00,76.3,73.1,29.87,West,261,0.0,0.0,90,0.00,CLR,,0.00,WeatherDisplay:10.37,2013-06-09 15:18:00,
2013-06-09 10:23:00,76.4,72.9,29.87,West,263,4.6,4.6,89,0.00,CLR,,0.00,WeatherDisplay:10.37,2013-06-09 15:23:00,
2013-06-09 10:28:00,76.6,72.8,29.86,West,263,0.0,0.0,88,0.00,CLR,,0.00,WeatherDisplay:10.37,2013-06-09 15:28:00,
2013-06-09 10:33:00,76.8,72.6,29.86,West,266,5.8,5.8,87,0.00,CLR,,0.00,WeatherDisplay:10.37,2013-06-09 15:33:00,
2013-06-09 10:38:00,77.2,72.7,29.86,West,265,3.5,3.5,86,0.00,CLR,,0.00,WeatherDisplay:10.37,2013-06-09 15:38:00,
2013-06-09 10:43:00,77.7,72.1,29.86,West,265,0.0,0.0,83,0.00,CLR,,0.00,WeatherDisplay:10.37,2013-06-09 15:43:00,
2013-06-09 10:48:00,78.5,72.9,29.86,West,266,0.0,0.0,83,0.00,CLR,,0.00,WeatherDisplay:10.37,2013-06-09 15:48:00,
2013-06-09 10:53:00,79.7,73.7,29.86,West,266,0.0,0.0,82,0.00,CLR,,0.00,WeatherDisplay:10.37,2013-06-09 15:53:00,
2013-06-09 10:58:00,80.4,73.7,29.86,West,264,2.3,2.3,80,0.00,CLR,,0.00,WeatherDisplay:10.37,2013-06-09 15:58:00,
2013-06-09 11:03:00,81.1,73.2,29.86,WSW,237,6.9,6.9,77,0.00,CLR,,0.00,WeatherDisplay:10.37,2013-06-09 16:03:00,
2013-06-09 11:08:00,81.5,73.6,29.85,SW,233,6.0,6.0,77,0.00,CLR,,0.00,WeatherDisplay:10.37,2013-06-09 16:08:00,
2013-06-09 11:13:00,81.8,72.7,29.86,SW,218,3.5,3.5,74,0.00,CLR,,0.00,WeatherDisplay:10.37,2013-06-09 16:13:00,
2013-06-09 11:18:00,81.9,72.0,29.86,SSW,213,10.4,10.4,72,0.00,CLR,,0.00,WeatherDisplay:10.37,2013-06-09 16:18:00,
2013-06-09 11:23:00,82.1,72.2,29.85,SSW,211,9.2,9.2,72,0.00,CLR,,0.00,WeatherDisplay:10.37,2013-06-09 16:23:00,
2013-06-09 11:28:00,82.4,72.0,29.85,SSW,192,10.4,10.4,71,0.00,CLR,,0.00,WeatherDisplay:10.37,2013-06-09 16:28:00,
2013-06-09 11:33:00,82.5,72.1,29.85,SSW,192,7.0,7.0,71,0.00,CLR,,0.00,WeatherDisplay:10.37,2013-06-09 16:33:00,
2013-06-09 11:38:00,82.4,72.0,29.85,SSW,196,10.4,10.4,71,0.00,CLR,,0.00,WeatherDisplay:10.37,2013-06-09 16:38:00,
2013-06-09 11:43:00,82.4,72.5,29.85,SSW,196,5.0,5.0,72,0.00,CLR,,0.00,WeatherDisplay:10.37,2013-06-09 16:43:00,
2013-06-09 11:48:00,82.7,72.3,29.85,South,176,12.7,12.7,71,0.00,CLR,,0.00,WeatherDisplay:10.37,2013-06-09 16:48:00,
2013-06-09 11:53:00,82.7,72.3,29.85,SSE,168,3.5,3.5,71,0.00,CLR,,0.00,WeatherDisplay:10.37,2013-06-09 16:53:00,
2013-06-09 11:58:00,82.6,72.2,29.85,SSE,168,5.0,5.0,71,0.00,CLR,,0.00,WeatherDisplay:10.37,2013-06-09 16:58:00,
2013-06-09 12:03:00,82.5,72.6,29.85,SSE,167,3.5,3.5,72,0.00,CLR,,0.00,WeatherDisplay:10.37,2013-06-09 17:03:00,
2013-06-09 12:08:00,82.5,72.1,29.86,SSE,165,5.0,5.0,71,0.00,CLR,,0.00,WeatherDisplay:10.37,2013-06-09 17:08:00,
2013-06-09 12:13:00,82.7,72.7,29.86,SSE,165,2.3,2.3,72,0.00,CLR,,0.00,WeatherDisplay:10.37,2013-06-09 17:13:00,
2013-06-09 12:18:00,83.1,73.9,29.85,SSE,154,6.0,6.0,74,0.00,CLR,,0.00,WeatherDisplay:10.37,2013-06-09 17:18:00,
2013-06-09 12:23:00,83.2,73.6,29.85,SE,133,10.0,10.0,73,0.00,CLR,,0.00,WeatherDisplay:10.37,2013-06-09 17:23:00,
2013-06-09 12:28:00,83.2,73.6,29.85,SE,126,6.0,6.0,73,0.00,CLR,,0.00,WeatherDisplay:10.37,2013-06-09 17:28:00,
2013-06-09 12:33:00,83.4,73.4,29.85,ESE,119,9.2,9.2,72,0.00,CLR,,0.00,WeatherDisplay:10.37,2013-06-09 17:33:00,
2013-06-09 12:38:00,83.4,73.4,29.84,ESE,122,0.0,0.0,72,0.00,CLR,,0.00,WeatherDisplay:10.37,2013-06-09 17:38:00,
2013-06-09 12:43:00,83.6,73.6,29.84,ESE,122,3.0,3.0,72,0.00,CLR,,0.00,WeatherDisplay:10.37,2013-06-09 17:43:00,
2013-06-09 12:48:00,84.0,73.2,29.84,SE,130,5.8,5.8,70,0.00,CLR,,0.00,WeatherDisplay:10.37,2013-06-09 17:48:00,
2013-06-09 12:53:00,84.4,74.0,29.84,SE,128,5.8,5.8,71,0.00,CLR,,0.00,WeatherDisplay:10.37,2013-06-09 17:53:00,
2013-06-09 12:58:00,84.5,73.2,29.84,SE,130,10.4,10.4,69,0.00,CLR,,0.00,WeatherDisplay:10.37,2013-06-09 17:58:00,
2013-06-09 13:03:00,84.1,72.8,29.84,SE,134,5.8,5.8,69,0.00,CLR,,0.00,WeatherDisplay:10.37,2013-06-09 18:03:00,
2013-06-09 13:08:00,84.0,72.7,29.83,SE,135,3.5,3.5,69,0.00,CLR,,0.00,WeatherDisplay:10.37,2013-06-09 18:08:00,
2013-06-09 13:13:00,83.9,72.6,29.83,SE,137,11.0,11.0,69,0.00,CLR,,0.00,WeatherDisplay:10.37,2013-06-09 18:13:00,
2013-06-09 13:18:00,84.1,73.3,29.83,ESE,122,11.5,11.5,70,0.00,CLR,,0.00,WeatherDisplay:10.37,2013-06-09 18:18:00,
2013-06-09 13:23:00,84.0,72.7,29.83,ESE,114,7.0,7.0,69,0.00,CLR,,0.00,WeatherDisplay:10.37,2013-06-09 18:23:00,
2013-06-09 13:28:00,84.0,72.7,29.83,ESE,117,8.1,8.1,69,0.00,CLR,,0.00,WeatherDisplay:10.37,2013-06-09 18:28:00,
2013-06-09 13:33:00,84.3,72.6,29.83,SE,140,6.9,6.9,68,0.00,CLR,,0.00,WeatherDisplay:10.37,2013-06-09 18:33:00,
2013-06-09 13:38:00,84.7,73.4,29.83,SE,133,11.0,11.0,69,0.00,CLR,,0.00,WeatherDisplay:10.37,2013-06-09 18:38:00,
2013-06-09 13:43:00,85.1,73.8,29.83,SSE,159,11.5,11.5,69,0.00,CLR,,0.00,WeatherDisplay:10.37,2013-06-09 18:43:00,
2013-06-09 13:48:00,85.5,72.8,29.82,SSE,159,6.9,6.9,66,0.00,CLR,,0.00,WeatherDisplay:10.37,2013-06-09 18:48:00,
2013-06-09 13:53:00,85.5,73.3,29.82,SSE,153,8.0,8.0,67,0.00,CLR,,0.00,WeatherDisplay:10.37,2013-06-09 18:53:00,
2013-06-09 13:58:00,85.8,73.6,29.82,SSE,159,5.8,5.8,67,0.00,CLR,,0.00,WeatherDisplay:10.37,2013-06-09 18:58:00,
2013-06-09 14:03:00,85.8,72.7,29.82,SSE,152,11.5,11.5,65,0.00,CLR,,0.00,WeatherDisplay:10.37,2013-06-09 19:03:00,
2013-06-09 14:08:00,85.8,72.7,29.82,SE,137,10.4,10.4,65,0.00,CLR,,0.00,WeatherDisplay:10.37,2013-06-09 19:08:00,
2013-06-09 14:13:00,85.9,73.7,29.81,SE,140,2.3,2.3,67,0.00,CLR,,0.00,WeatherDisplay:10.37,2013-06-09 19:13:00,
2013-06-09 14:18:00,86.1,73.4,29.81,SSE,153,10.4,10.4,66,0.00,CLR,,0.00,WeatherDisplay:10.37,2013-06-09 19:18:00,
2013-06-09 14:23:00,86.0,72.9,29.81,SSE,147,13.8,13.8,65,0.00,CLR,,0.00,WeatherDisplay:10.37,2013-06-09 19:23:00,
2013-06-09 14:28:00,85.9,73.2,29.80,South,172,2.0,2.0,66,0.00,CLR,,0.00,WeatherDisplay:10.37,2013-06-09 19:28:00,
2013-06-09 14:33:00,86.1,73.0,29.80,South,171,6.9,6.9,65,0.00,CLR,,0.00,WeatherDisplay:10.37,2013-06-09 19:33:00,
2013-06-09 14:38:00,86.6,73.9,29.80,ESE,109,9.2,9.2,66,0.00,CLR,,0.00,WeatherDisplay:10.37,2013-06-09 19:38:00,
2013-06-09 14:43:00,86.5,72.9,29.80,SE,136,5.0,5.0,64,0.00,CLR,,0.00,WeatherDisplay:10.37,2013-06-09 19:43:00,
2013-06-09 14:48:00,86.7,72.1,29.80,SSE,159,11.5,11.5,62,0.00,CLR,,0.00,WeatherDisplay:10.37,2013-06-09 19:48:00,
2013-06-09 14:53:00,86.7,72.1,29.79,SSE,158,9.2,9.2,62,0.00,CLR,,0.00,WeatherDisplay:10.37,2013-06-09 19:53:00,
2013-06-09 14:58:00,86.6,73.4,29.80,SE,128,7.0,7.0,65,0.00,CLR,,0.00,WeatherDisplay:10.37,2013-06-09 19:58:00,
2013-06-09 15:03:00,86.6,72.5,29.80,ESE,123,3.5,3.5,63,0.00,CLR,,0.00,WeatherDisplay:10.37,2013-06-09 20:03:00,
2013-06-09 15:08:00,87.0,73.3,29.81,SE,129,11.0,11.0,64,0.00,CLR,,0.00,WeatherDisplay:10.37,2013-06-09 20:08:00,
2013-06-09 15:13:00,87.2,73.1,29.81,ESE,121,10.4,10.4,63,0.00,CLR,,0.00,WeatherDisplay:10.37,2013-06-09 20:13:00,
2013-06-09 15:18:00,87.0,72.4,29.81,SSE,147,11.5,11.5,62,0.00,CLR,,0.00,WeatherDisplay:10.37,2013-06-09 20:18:00,
2013-06-09 15:23:00,86.9,72.8,29.81,SE,136,1.0,0.0,63,0.00,CLR,,0.00,WeatherDisplay:10.37,2013-06-09 20:23:00,
2013-06-09 15:28:00,86.5,72.9,29.81,ESE,117,6.9,6.9,64,0.00,CLR,,0.00,WeatherDisplay:10.37,2013-06-09 20:28:00,
2013-06-09 15:33:00,86.1,72.5,29.81,SE,126,6.9,6.9,64,0.00,CLR,,0.00,WeatherDisplay:10.37,2013-06-09 20:33:00,
2013-06-09 15:38:00,85.8,72.7,29.82,ESE,121,6.9,6.9,65,0.00,CLR,,0.00,WeatherDisplay:10.37,2013-06-09 20:38:00,
2013-06-09 15:43:00,85.7,72.6,29.81,ESE,105,2.3,2.3,65,0.00,CLR,,0.00,WeatherDisplay:10.37,2013-06-09 20:43:00,
2013-06-09 15:48:00,86.1,73.4,29.81,ESE,109,3.5,3.5,66,0.00,CLR,,0.00,WeatherDisplay:10.37,2013-06-09 20:48:00,
2013-06-09 15:53:00,86.3,73.1,29.80,SE,130,3.5,3.5,65,0.00,CLR,,0.00,WeatherDisplay:10.37,2013-06-09 20:53:00,
2013-06-09 15:58:00,86.7,73.1,29.80,ESE,109,13.8,13.8,64,0.00,CLR,,0.00,WeatherDisplay:10.37,2013-06-09 20:58:00,
2013-06-09 16:03:00,86.8,72.7,29.80,ESE,123,13.8,13.8,63,0.00,CLR,,0.00,WeatherDisplay:10.37,2013-06-09 21:03:00,
2013-06-09 16:08:00,86.7,73.5,29.80,ESE,107,15.0,15.0,65,0.00,CLR,,0.00,WeatherDisplay:10.37,2013-06-09 21:08:00,
2013-06-09 16:13:00,86.8,73.2,29.80,ESE,117,5.0,5.0,64,0.00,CLR,,0.00,WeatherDisplay:10.37,2013-06-09 21:13:00,
2013-06-09 16:18:00,86.5,72.9,29.80,SE,134,10.4,10.4,64,0.00,CLR,,0.00,WeatherDisplay:10.37,2013-06-09 21:18:00,
2013-06-09 16:23:00,86.1,72.5,29.80,ESE,111,5.0,5.0,64,0.00,CLR,,0.00,WeatherDisplay:10.37,2013-06-09 21:23:00,
2013-06-09 16:28:00,85.8,72.2,29.81,SE,132,11.0,11.0,64,0.00,CLR,,0.00,WeatherDisplay:10.37,2013-06-09 21:28:00,
2013-06-09 16:33:00,85.4,70.9,29.82,SE,130,4.6,4.6,62,0.00,CLR,,0.00,WeatherDisplay:10.37,2013-06-09 21:33:00,
2013-06-09 16:38:00,85.3,71.7,29.81,SE,136,1.2,1.2,64,0.00,CLR,,0.00,WeatherDisplay:10.37,2013-06-09 21:38:00,
2013-06-09 16:43:00,85.2,71.6,29.81,ESE,115,6.9,6.9,64,0.00,CLR,,0.00,WeatherDisplay:10.37,2013-06-09 21:43:00,
2013-06-09 16:48:00,84.9,71.8,29.81,ESE,123,8.1,8.1,65,0.00,CLR,,0.00,WeatherDisplay:10.37,2013-06-09 21:48:00,
2013-06-09 16:53:00,84.7,71.6,29.82,SE,125,3.5,0.0,65,0.00,CLR,,0.00,WeatherDisplay:10.37,2013-06-09 21:53:00,
2013-06-09 16:58:00,84.5,71.9,29.82,SE,125,9.2,9.2,66,0.00,CLR,,0.00,WeatherDisplay:10.37,2013-06-09 21:58:00,
2013-06-09 17:03:00,84.3,71.7,29.81,SE,125,2.0,2.0,66,0.00,CLR,,0.00,WeatherDisplay:10.37,2013-06-09 22:03:00,
2013-06-09 17:08:00,84.2,72.0,29.82,SE,125,0.0,0.0,67,0.00,CLR,,0.00,WeatherDisplay:10.37,2013-06-09 22:08:00,
2013-06-09 17:13:00,84.1,72.4,29.82,SE,125,0.0,0.0,68,0.00,CLR,,0.00,WeatherDisplay:10.37,2013-06-09 22:13:00,
2013-06-09 17:18:00,84.0,71.9,29.83,SE,125,0.0,0.0,67,0.00,CLR,,0.00,WeatherDisplay:10.37,2013-06-09 22:18:00,
2013-06-09 17:23:00,84.0,71.9,29.83,SE,125,0.0,0.0,67,0.00,CLR,,0.00,WeatherDisplay:10.37,2013-06-09 22:23:00,
2013-06-09 17:28:00,84.0,72.3,29.82,SE,125,0.0,0.0,68,0.00,CLR,,0.00,WeatherDisplay:10.37,2013-06-09 22:28:00,
2013-06-09 17:33:00,84.1,72.4,29.83,SE,125,0.0,0.0,68,0.00,CLR,,0.00,WeatherDisplay:10.37,2013-06-09 22:33:00,
2013-06-09 17:38:00,84.1,72.4,29.83,SE,125,0.0,0.0,68,0.00,CLR,,0.00,WeatherDisplay:10.37,2013-06-09 22:38:00,
2013-06-09 17:43:00,84.1,72.4,29.82,SE,125,0.0,0.0,68,0.00,CLR,,0.00,WeatherDisplay:10.37,2013-06-09 22:43:00,
2013-06-09 17:48:00,84.0,71.9,29.82,ESE,123,0.0,0.0,67,0.00,CLR,,0.00,WeatherDisplay:10.37,2013-06-09 22:48:00,
2013-06-09 17:53:00,83.7,71.6,29.81,ESE,123,0.0,0.0,67,0.00,CLR,,0.00,WeatherDisplay:10.37,2013-06-09 22:53:00,
2013-06-09 17:58:00,83.4,71.7,29.81,ESE,123,0.0,0.0,68,0.00,CLR,,0.00,WeatherDisplay:10.37,2013-06-09 22:58:00,
2013-06-09 18:03:00,83.1,71.9,29.81,ESE,123,0.0,0.0,69,0.00,CLR,,0.00,WeatherDisplay:10.37,2013-06-09 23:03:00,
2013-06-09 18:08:00,82.9,72.1,29.81,ESE,123,0.0,0.0,70,0.00,CLR,,0.00,WeatherDisplay:10.37,2013-06-09 23:08:00,
2013-06-09 18:13:00,82.9,72.1,29.81,ESE,123,0.0,0.0,70,0.00,CLR,,0.00,WeatherDisplay:10.37,2013-06-09 23:13:00,
2013-06-09 18:18:00,82.8,72.4,29.82,ESE,123,0.0,0.0,71,0.00,CLR,,0.00,WeatherDisplay:10.37,2013-06-09 23:18:00,
2013-06-09 18:23:00,82.8,72.8,29.82,ESE,123,0.0,0.0,72,0.00,CLR,,0.00,WeatherDisplay:10.37,2013-06-09 23:23:00,
2013-06-09 18:28:00,82.9,72.9,29.81,ESE,123,0.0,0.0,72,0.00,CLR,,0.00,WeatherDisplay:10.37,2013-06-09 23:28:00,
2013-06-09 18:33:00,82.9,72.9,29.81,ESE,123,0.0,0.0,72,0.00,CLR,,0.00,WeatherDisplay:10.37,2013-06-09 23:33:00,
2013-06-09 18:38:00,83.0,73.0,29.81,ESE,123,0.0,0.0,72,0.00,CLR,,0.00,WeatherDisplay:10.37,2013-06-09 23:38:00,
2013-06-09 18:43:00,83.1,72.7,29.81,ESE,123,0.0,0.0,71,0.00,CLR,,0.00,WeatherDisplay:10.37,2013-06-09 23:43:00,
2013-06-09 18:48:00,83.1,72.7,29.82,ESE,123,0.0,0.0,71,0.00,CLR,,0.00,WeatherDisplay:10.37,2013-06-09 23:48:00,
2013-06-09 18:53:00,83.1,72.7,29.81,ESE,123,0.0,0.0,71,0.00,CLR,,0.00,WeatherDisplay:10.37,2013-06-09 23:53:00,
2013-06-09 18:58:00,83.1,72.7,29.81,ESE,122,3.5,3.5,71,0.00,CLR,,0.00,WeatherDisplay:10.37,2013-06-09 23:58:00,
2013-06-09 19:03:00,82.9,71.7,29.81,ESE,122,9.2,9.2,69,0.00,CLR,,0.00,WeatherDisplay:10.37,2013-06-10 00:03:00,
2013-06-09 19:08:00,82.7,71.1,29.81,ESE,123,5.0,5.0,68,0.00,CLR,,0.00,WeatherDisplay:10.37,2013-06-10 00:08:00,
2013-06-09 19:13:00,82.3,69.8,29.81,SE,140,11.5,11.5,66,0.00,CLR,,0.00,WeatherDisplay:10.37,2013-06-10 00:13:00,
2013-06-09 19:18:00,81.8,68.0,29.81,SE,140,4.6,4.6,63,0.00,CLR,,0.00,WeatherDisplay:10.37,2013-06-10 00:18:00,
2013-06-09 19:23:00,81.3,67.5,29.81,SE,137,3.5,3.5,63,0.00,CLR,,0.00,WeatherDisplay:10.37,2013-06-10 00:23:00,
2013-06-09 19:28:00,81.0,67.7,29.82,SE,136,0.0,0.0,64,0.00,CLR,,0.00,WeatherDisplay:10.37,2013-06-10 00:28:00,
2013-06-09 19:33:00,80.8,67.9,29.82,SE,136,0.0,0.0,65,0.00,CLR,,0.00,WeatherDisplay:10.37,2013-06-10 00:33:00,
2013-06-09 19:38:00,80.6,67.7,29.82,SE,136,0.0,0.0,65,0.00,CLR,,0.00,WeatherDisplay:10.37,2013-06-10 00:38:00,
2013-06-09 19:43:00,80.4,68.0,29.82,SE,136,0.0,0.0,66,0.00,CLR,,0.00,WeatherDisplay:10.37,2013-06-10 00:43:00,
2013-06-09 19:48:00,80.4,68.0,29.82,SE,136,0.0,0.0,66,0.00,CLR,,0.00,WeatherDisplay:10.37,2013-06-10 00:48:00,
2013-06-09 19:53:00,80.3,67.9,29.82,SE,136,0.0,0.0,66,0.00,CLR,,0.00,WeatherDisplay:10.37,2013-06-10 00:53:00,
2013-06-09 19:58:00,80.3,67.5,29.82,SE,136,0.0,0.0,65,0.00,CLR,,0.00,WeatherDisplay:10.37,2013-06-10 00:58:00,
2013-06-09 20:03:00,80.3,67.9,29.82,SE,136,0.0,0.0,66,0.00,CLR,,0.00,WeatherDisplay:10.37,2013-06-10 01:03:00,
2013-06-09 20:08:00,80.2,68.2,29.82,SE,136,0.0,0.0,67,0.00,CLR,,0.00,WeatherDisplay:10.37,2013-06-10 01:08:00,
2013-06-09 20:13:00,80.2,68.7,29.82,SE,136,0.0,0.0,68,0.00,CLR,,0.00,WeatherDisplay:10.37,2013-06-10 01:13:00,
2013-06-09 20:18:00,80.1,68.6,29.83,SE,136,0.0,0.0,68,0.00,CLR,,0.00,WeatherDisplay:10.37,2013-06-10 01:18:00,
2013-06-09 20:23:00,79.8,68.3,29.83,SE,136,1.2,1.2,68,0.00,CLR,,0.00,WeatherDisplay:10.37,2013-06-10 01:23:00,
2013-06-09 20:28:00,79.5,68.4,29.83,SE,135,0.0,0.0,69,0.00,CLR,,0.00,WeatherDisplay:10.37,2013-06-10 01:28:00,
2013-06-09 20:33:00,79.1,68.9,29.83,SE,134,0.0,0.0,71,0.00,CLR,,0.00,WeatherDisplay:10.37,2013-06-10 01:33:00,
2013-06-09 20:38:00,79.1,69.3,29.83,SE,135,0.0,0.0,72,0.00,CLR,,0.00,WeatherDisplay:10.37,2013-06-10 01:38:00,
2013-06-09 20:43:00,78.9,69.5,29.84,SE,135,0.0,0.0,73,0.00,CLR,,0.00,WeatherDisplay:10.37,2013-06-10 01:43:00,
2013-06-09 20:48:00,78.7,69.7,29.84,SE,135,0.0,0.0,74,0.00,CLR,,0.00,WeatherDisplay:10.37,2013-06-10 01:48:00,
2013-06-09 20:53:00,78.4,69.4,29.85,SE,134,0.0,0.0,74,0.00,CLR,,0.00,WeatherDisplay:10.37,2013-06-10 01:53:00,
2013-06-09 20:58:00,77.9,69.3,29.85,SE,134,0.0,0.0,75,0.00,CLR,,0.00,WeatherDisplay:10.37,2013-06-10 01:58:00,
2013-06-09 21:03:00,77.3,68.8,29.86,SE,135,0.0,0.0,75,0.00,CLR,,0.00,WeatherDisplay:10.37,2013-06-10 02:03:00,
2013-06-09 21:08:00,77.1,68.9,29.86,SE,135,0.0,0.0,76,0.00,CLR,,0.00,WeatherDisplay:10.37,2013-06-10 02:08:00,
2013-06-09 21:13:00,76.9,68.8,29.86,SE,134,0.0,0.0,76,0.00,CLR,,0.00,WeatherDisplay:10.37,2013-06-10 02:13:00,
2013-06-09 21:18:00,76.7,68.6,29.86,SE,135,0.0,0.0,76,0.00,CLR,,0.00,WeatherDisplay:10.37,2013-06-10 02:18:00,
2013-06-09 21:23:00,76.5,68.7,29.86,SE,135,0.0,0.0,77,0.00,CLR,,0.00,WeatherDisplay:10.37,2013-06-10 02:23:00,
2013-06-09 21:28:00,76.3,68.6,29.87,SE,134,0.0,0.0,77,0.00,CLR,,0.00,WeatherDisplay:10.37,2013-06-10 02:28:00,
2013-06-09 21:33:00,76.2,68.5,29.87,SE,135,0.0,0.0,77,0.00,CLR,,0.00,WeatherDisplay:10.37,2013-06-10 02:33:00,
2013-06-09 21:38:00,76.1,68.4,29.87,SE,135,0.0,0.0,77,0.00,CLR,,0.00,WeatherDisplay:10.37,2013-06-10 02:38:00,
2013-06-09 21:43:00,75.9,67.4,29.87,SE,135,0.0,0.0,75,0.00,CLR,,0.00,WeatherDisplay:10.37,2013-06-10 02:43:00,
2013-06-09 21:48:00,75.7,67.2,29.87,SE,135,0.0,0.0,75,0.00,CLR,,0.00,WeatherDisplay:10.37,2013-06-10 02:48:00,
2013-06-09 21:53:00,75.6,67.5,29.87,SE,134,0.0,0.0,76,0.00,CLR,,0.00,WeatherDisplay:10.37,2013-06-10 02:53:00,
2013-06-09 21:58:00,75.6,67.9,29.88,SE,134,0.0,0.0,77,0.00,CLR,,0.00,WeatherDisplay:10.37,2013-06-10 02:58:00,
2013-06-09 22:03:00,75.5,67.8,29.87,SE,134,0.0,0.0,77,0.00,CLR,,0.00,WeatherDisplay:10.37,2013-06-10 03:03:00,
2013-06-09 22:08:00,75.4,67.7,29.88,SE,134,0.0,0.0,77,0.00,CLR,,0.00,WeatherDisplay:10.37,2013-06-10 03:08:00,
2013-06-09 22:13:00,75.2,67.9,29.88,SE,135,0.0,0.0,78,0.00,CLR,,0.00,WeatherDisplay:10.37,2013-06-10 03:13:00,
2013-06-09 22:18:00,75.1,67.8,29.89,SE,135,0.0,0.0,78,0.00,CLR,,0.00,WeatherDisplay:10.37,2013-06-10 03:18:00,
2013-06-09 22:23:00,74.9,67.6,29.89,SE,134,0.0,0.0,78,0.00,CLR,,0.00,WeatherDisplay:10.37,2013-06-10 03:23:00,
2013-06-09 22:28:00,74.6,67.3,29.89,SE,134,0.0,0.0,78,0.00,CLR,,0.00,WeatherDisplay:10.37,2013-06-10 03:28:00,
2013-06-09 22:33:00,74.5,67.2,29.90,SE,135,0.0,0.0,78,0.00,CLR,,0.00,WeatherDisplay:10.37,2013-06-10 03:33:00,
2013-06-09 22:38:00,74.4,67.5,29.90,SE,135,0.0,0.0,79,0.00,CLR,,0.00,WeatherDisplay:10.37,2013-06-10 03:38:00,
2013-06-09 22:43:00,74.3,67.4,29.90,SE,135,0.0,0.0,79,0.00,CLR,,0.00,WeatherDisplay:10.37,2013-06-10 03:43:00,
2013-06-09 22:48:00,74.2,67.3,29.90,SE,135,0.0,0.0,79,0.00,CLR,,0.00,WeatherDisplay:10.37,2013-06-10 03:48:00,
2013-06-09 22:53:00,74.2,67.6,29.90,SE,134,0.0,0.0,80,0.00,CLR,,0.00,WeatherDisplay:10.37,2013-06-10 03:53:00,
2013-06-09 22:58:00,74.2,68.0,29.90,SE,135,0.0,0.0,81,0.00,CLR,,0.00,WeatherDisplay:10.37,2013-06-10 03:58:00,
2013-06-09 23:01:00,74.2,68.0,29.90,SE,135,0.0,0.0,81,0.00,CLR,,0.00,WeatherDisplay:10.37,2013-06-10 04:01:00,
2013-06-09 23:02:00,74.2,68.0,29.91,SE,134,0.0,0.0,81,0.00,CLR,,0.00,WeatherDisplay:10.37,2013-06-10 04:02:00,
2013-06-09 23:07:00,74.2,68.3,29.91,SE,134,0.0,0.0,82,0.00,CLR,,0.00,WeatherDisplay:10.37,2013-06-10 04:07:00,
2013-06-09 23:12:00,74.2,68.0,29.91,SE,135,0.0,0.0,81,0.00,CLR,,0.00,WeatherDisplay:10.37,2013-06-10 04:12:00,
2013-06-09 23:17:00,74.1,67.9,29.91,SE,134,0.0,0.0,81,0.00,CLR,,0.00,WeatherDisplay:10.37,2013-06-10 04:17:00,
2013-06-09 23:22:00,74.1,67.9,29.91,SE,135,0.0,0.0,81,0.00,CLR,,0.00,WeatherDisplay:10.37,2013-06-10 04:22:00,
2013-06-09 23:27:00,74.0,67.8,29.91,SE,134,0.0,0.0,81,0.00,CLR,,0.00,WeatherDisplay:10.37,2013-06-10 04:27:00,
2013-06-09 23:32:00,73.9,67.7,29.91,SE,135,0.0,0.0,81,0.00,CLR,,0.00,WeatherDisplay:10.37,2013-06-10 04:32:00,
2013-06-09 23:37:00,73.9,67.7,29.91,SE,135,0.0,0.0,81,0.00,CLR,,0.00,WeatherDisplay:10.37,2013-06-10 04:37:00,
2013-06-09 23:42:00,73.8,67.6,29.91,SE,135,0.0,0.0,81,0.00,CLR,,0.00,WeatherDisplay:10.37,2013-06-10 04:42:00,
2013-06-09 23:47:00,73.7,67.9,29.91,SE,135,0.0,0.0,82,0.00,CLR,,0.00,WeatherDisplay:10.37,2013-06-10 04:47:00,
2013-06-09 23:52:00,73.5,67.7,29.91,SE,134,0.0,0.0,82,0.00,CLR,,0.00,WeatherDisplay:10.37,2013-06-10 04:52:00,
2013-06-09 23:57:00,73.4,67.6,29.91,SE,135,0.0,0.0,82,0.00,CLR,,0.00,WeatherDisplay:10.37,2013-06-10 04:57:00,